Regional Weather Roundup
Issued by NWS

Home | Current Version | Previous Version | Text Only | Print | Product List | Glossary Off
Versions: 1 2 3 4 5 6 7 8 9 10 11 12 13 14 15 16 17 18 19 20 21 22 23 24 25 26 27 28 29 30 31 32 33 34 35 36 37 38 39 40 41 42 43 44 45 46 47 48 49 50

000
ASUS45 KABQ 222301
RWRNM
NEW MEXICO REGIONAL WEATHER ROUNDUP
NATIONAL WEATHER SERVICE ALBUQUERQUE NM
400 PM MST WED FEB 22 2017

NOTE: "FAIR" MEANS FEW OR NO CLOUDS BELOW 12,000 FEET AGL WITH NO
       SIGNIFICANT WEATHER OR OBSTRUCTIONS TO VISION.

      THIS PRODUCT IS RELEASED AS TWO VERSIONS.  ONE VERSION NEAR
      THE TOP OF THE HOUR CONTAINING PRELIMINARY DATA FROM ALBUQUERQUE
      AND OTHER STATIONS.  A FINAL VERSION WITH ADDITIONAL DATA IS
      ISSUED ABOUT 10 MINUTES AFTER THE HOUR.

NMZ501-503-504-510>518-230000-
NORTHWEST PLATEAU/NORTHCENTRAL MOUNTAINS

CITY           SKY/WX    TMP DP  RH WIND       PRES   REMARKS
FARMINGTON     FAIR      62  15  16 W23G33    29.83F
LOS ALAMOS     CLOUDY    51  33  50 S3        29.99F
SANTA FE       CLOUDY    55  34  45 CALM      29.95F
TAOS             N/A     50  25  37 SW8       29.99S
ANGEL FIRE     CLOUDY    43  21  40 W18G25    30.02S

$$
NMZ402-403-502-505>509-230000-
WESTCENTRAL MOUNTAINS/SOUTHWEST MOUNTAINS

CITY           SKY/WX    TMP DP  RH WIND       PRES   REMARKS
GALLUP         CLOUDY    56  36  47 SW14      29.95F
GRANTS         FAIR      58  31  35 W13G22    29.99F
SILVER CITY    FAIR      69  30  23 W16G24    29.99F

$$
NMZ407-409-411-412-230000-
SOUTHERN DESERTS

CITY           SKY/WX    TMP DP  RH WIND       PRES   REMARKS
DEMING         FAIR      76  30  18 W10       29.93F
LAS CRUCES     FAIR      76  26  16 SW18G25   29.94F
HOLLOMAN AFB   FAIR      77  29  17 SW16      29.93F
ALAMOGORDO     FAIR      75  28  17 SW14      29.91F
T OR C         FAIR      76  25  15 W21G30    29.88F

$$
NMZ519>523-230000-
CENTRAL VALLEYS/CENTRAL HIGHLANDS

CITY           SKY/WX    TMP DP  RH WIND       PRES   REMARKS
ALBUQUERQUE    PTSUNNY   65  28  24 W22G28    29.91F
DOUBLE EAGLE   PTSUNNY   63  28  27 W30G38    29.93F
MORIARTY ARPT  FAIR      64  32  30 W12G17    29.97F
CLINES CORNERS PTSUNNY   58  28  32 W23G31    29.98F
BELEN          FAIR      69  27  21 CALM      29.90F
SOCORRO        FAIR      72  30  21 SE14      29.87F

$$
NMZ524>526-539-540-230000-
SOUTHCENTRAL MOUNTAINS

CITY           SKY/WX    TMP DP  RH WIND       PRES   REMARKS
RUIDOSO        NOT AVBL

$$
NMZ527>531-230000-
NORTHEAST HIGHLANDS/NORTHEAST PLAINS

CITY           SKY/WX    TMP DP  RH WIND       PRES   REMARKS
RATON          FAIR      58  11  15 W28G40    29.87F
CLAYTON        FAIR      71   8   8 W24G39    29.80F

$$
NMZ532>537-230000-
EASTCENTRAL PLAINS

CITY           SKY/WX    TMP DP  RH WIND       PRES   REMARKS
TUCUMCARI      FAIR      75  31  19 W25       29.81F
CANNON AFB     SUNNY     80  29  15 S17       29.83F
CLOVIS AIRPORT FAIR      79  30  17 W21G26    29.83F

$$
NMZ028-029-538-230000-
SOUTHEAST PLAINS

CITY           SKY/WX    TMP DP  RH WIND       PRES   REMARKS
ROSWELL        FAIR      84  26  12 SE12        N/A
ARTESIA        FAIR      82  28  14 SW21G32   29.81F
CARLSBAD       FAIR      84  23  10 SW13      29.82F
HOBBS          SUNNY     81  19  10 SW13      29.86F


$$



USA.gov is the U.S. government's official web portal to all federal, state and local government web resources and services.